User: anonymous   Login
Location: Newark
(47.5333°N, 8.7000°E)
Time: 03:06:23
(UTC+00:00)
Language:

DOVE 4 - Orbit

View from above orbital plane
View from above orbital plane
View from above satellite
View from above satellite

Ground track
Ground track

The orbit data is extracted from the following two-line orbital elements,

1 39430U 13066Q   20329.75794064  .00000446  00000-0  88943-4 0  9993
2 39430  97.8028 258.6840 0151894  39.9620 321.2654 14.59475221373180
Epoch (UTC): 24 November 2020 18:11:26
Eccentricity: 0.0151894
inclination: 97.8028°
perigee height: 587 km
apogee height: 802 km
right ascension of ascending node: 258.6840°
argument of perigee: 39.9620°
revolutions per day: 14.59475221
mean anomaly at epoch: 321.2654°
orbit number at epoch: 37318

The dashed part of the orbit path shows where the satellite is in the earth's shadow,  

DLR